Everett, WA
on Saturday, January 26, 2013

Saturday
Previous Day Next Day
Daily Summary
 ActualAverageRecord
Temperature
Mean Temperature °F °F  
Max Temperature 59°F 45°F 64°F (1951)
Min Temperature 39°F 32°F 3°F (1957)
Degree Days
Heating Degree Days 16    
Moisture
Dew Point 37°F   
Average Humidity 88    
Maximum Humidity 93    
Minimum Humidity 81    
Precipitation
Precipitation 0.31 in in in ()
Wind
Wind Speed 7 mph   
Max Wind Speed 16 mph   
Max Gust Speed 23 mph   
Visibility 9 miles   
Events Rain   
Averages and records for this station are not official NWS values.
Key: T is trace of precipitation, MM is missing value
Source: NWS Daily Summary
Seasonal Weather Averages
Time(PST)TemperatureDew PointHumidity Pressure Visibility Wind DirectionWind SpeedGust SpeedPrecipitationEvents Conditions
12:43 AM 41.0°F 37.4°F 87% 29.90 in 10.0 miles SE 4.6 mph - N/A   Scattered Clouds
12:53 AM 41.0°F 37.0°F 86% 29.91 in 10.0 miles SE 3.5 mph - N/A   Partly Cloudy
1:53 AM 42.1°F 37.0°F 82% 29.91 in 10.0 miles SSE 8.1 mph - N/A   Overcast
2:53 AM 42.1°F 37.0°F 82% 29.90 in 10.0 miles SSE 6.9 mph - N/A   Mostly Cloudy
3:38 AM 42.8°F 37.4°F 81% 29.88 in 10.0 miles SSE 5.8 mph - N/A   Overcast
3:53 AM 42.1°F 37.0°F 82% 29.89 in 10.0 miles SSE 8.1 mph - N/A   Overcast
4:15 AM 42.8°F 37.4°F 81% 29.88 in 10.0 miles SSE 9.2 mph - N/A   Overcast
4:33 AM 42.8°F 37.4°F 81% 29.87 in 10.0 miles SSE 5.8 mph - N/A   Overcast
4:53 AM 41.0°F 37.0°F 86% 29.88 in 7.0 miles SSE 5.8 mph - 0.00 in Rain Light Rain
5:35 AM 39.2°F 37.4°F 93% 29.87 in 9.0 miles SSE 10.4 mph - 0.02 in Rain Light Rain
5:53 AM 39.9°F 37.0°F 89% 29.88 in 8.0 miles SSE 9.2 mph - 0.02 in Rain Light Rain
6:19 AM 39.2°F 35.6°F 87% 29.87 in 6.0 miles SSE 11.5 mph - 0.02 in Rain Light Rain
6:34 AM 39.2°F 35.6°F 87% 29.87 in 6.0 miles SSE 10.4 mph - 0.04 in Rain Light Rain
6:41 AM 39.2°F 35.6°F 87% 29.88 in 6.0 miles SSE 12.7 mph - 0.05 in Rain Light Rain
6:53 AM 39.0°F 36.0°F 89% 29.88 in 7.0 miles SSE 10.4 mph - 0.06 in Rain Light Rain
7:53 AM 39.9°F 37.0°F 89% 29.89 in 5.0 miles SSE 9.2 mph - 0.01 in Rain Light Rain
8:21 AM 39.2°F 37.4°F 93% 29.88 in 7.0 miles SSE 11.5 mph - 0.00 in Rain Light Rain
8:53 AM 39.9°F 37.0°F 89% 29.90 in 5.0 miles SSE 8.1 mph - 0.03 in Rain Light Rain
9:53 AM 41.0°F 37.0°F 86% 29.91 in 10.0 miles South 16.1 mph 21.9 mph 0.00 in Rain Light Rain
10:53 AM 39.9°F 37.0°F 89% 29.93 in 5.0 miles SSW 15.0 mph - 0.04 in Rain Light Rain
11:53 AM 41.0°F 37.9°F 89% 29.93 in 6.0 miles WSW 8.1 mph - 0.08 in Rain Light Rain
12:47 PM 59.0°F - N/A% 30.02 in 30.0 miles NW 13.8 mph 23.0 mph N/A   Partly Cloudy
12:53 PM 41.0°F 37.9°F 89% 29.93 in 10.0 miles SW 6.9 mph - 0.03 in Rain Light Rain
1:53 PM 42.1°F 39.0°F 89% 29.92 in 10.0 miles SW 5.8 mph - 0.00 in Rain Light Rain
2:53 PM 43.0°F 39.0°F 86% 29.93 in 10.0 miles SW 4.6 mph - 0.01 in   Overcast
3:53 PM 43.0°F 37.9°F 82% 29.94 in 10.0 miles SW 4.6 mph - N/A   Overcast
4:53 PM 42.1°F 39.0°F 89% 29.95 in 5.0 miles Calm Calm - 0.00 in   Overcast
5:53 PM 42.1°F 39.0°F 89% 29.96 in 10.0 miles Calm Calm - 0.01 in   Overcast
6:53 PM 41.0°F 37.9°F 89% 29.98 in 10.0 miles SSW 8.1 mph - 0.02 in Rain Light Rain
7:00 PM 41.0°F 37.4°F 87% 29.96 in 10.0 miles SSW 8.1 mph - 0.00 in   Overcast
7:53 PM 39.9°F 37.0°F 89% 29.99 in 10.0 miles SSW 6.9 mph - 0.00 in   Overcast
8:05 PM 39.2°F 37.4°F 93% 29.98 in 10.0 miles SSW 6.9 mph - N/A   Overcast
8:53 PM 39.9°F 37.0°F 89% 30.00 in 10.0 miles South 5.8 mph - N/A   Overcast
9:53 PM 39.9°F 37.0°F 89% 30.01 in 10.0 miles South 6.9 mph - N/A   Overcast
10:11 PM 39.2°F 37.4°F 93% 30.00 in 10.0 miles South 6.9 mph - N/A   Scattered Clouds
10:40 PM 39.2°F 37.4°F 93% 30.01 in 10.0 miles SW 3.5 mph - N/A   Overcast
10:53 PM 39.9°F 37.0°F 89% 30.03 in 10.0 miles SSW 4.6 mph - N/A   Overcast
11:07 PM 39.2°F 37.4°F 93% 30.01 in 10.0 miles South 4.6 mph - N/A   Overcast
11:53 PM 39.9°F 37.0°F 89% 30.04 in 10.0 miles SSW 6.9 mph - N/A   Overcast
Moon Phase
Jan. 26 Jan. 26 Feb. 03 Feb. 10 Feb. 17
Sunrise:07:43 AM (PST) Moon Rise:05:05 PM (PST)1/26
Sunset:05:00 PM (PST) Moon Set:07:01 AM (PST)1/26

Copyright © 2014 The Weather Underground, Inc.